This is the latest recevied weather packets stored in our database for station/object SR5NLK-1. If no packets are shown the sender has not sent any weather packets the latest 10 day(s).
| Time | Temp. | Humidity | Pressure | Rain* | Wind** | Luminosity | Snow |
|---|---|---|---|---|---|---|---|
| 1788011426 | 24.44° C | 68% | 1079.3 hPa | 0 mm | - | - | - |
| 1788011394 | 24.44° C | 68% | 1079.3 hPa | 0 mm | - | - | - |
| 1788010794 | 24.44° C | 66% | 1079.7 hPa | 0 mm | - | - | - |
| 1788010494 | 25° C | 66% | 1081.5 hPa | 0 mm | - | - | - |
| 1788010194 | 24.44° C | 65% | 1069 hPa | 0 mm | - | - | - |
| 1788009893 | 25° C | 65% | 1072.1 hPa | 0 mm | - | - | - |
| 1788009594 | 25° C | 65% | 1027.7 hPa | 0 mm | - | - | - |
| 1788009294 | 25° C | 65% | 1078.4 hPa | 0 mm | - | - | - |
| 1788008994 | 25° C | 65% | 1026.7 hPa | 0 mm | - | - | - |
| 1788008694 | 25° C | 67% | 1062.7 hPa | 0 mm | - | - | - |
| 1788008394 | 25° C | 68% | 1065.8 hPa | 0 mm | - | - | - |
| 1788008094 | 25° C | 69% | 1059.5 hPa | 0 mm | - | - | - |
| 1788007913 | 25° C | 69% | 1046.9 hPa | 0 mm | - | - | - |
| 1788007794 | 24.44° C | 71% | 1053.2 hPa | 0 mm | - | - | - |
| 1788007494 | 23.89° C | 72% | 1059.5 hPa | 0 mm | - | - | - |
| 1788007194 | 23.89° C | 72% | 1075.2 hPa | 0 mm | - | - | - |
| 1788006894 | 23.89° C | 73% | 1059.5 hPa | 0 mm | - | - | - |
| 1788006594 | 23.33° C | 75% | 1068.9 hPa | 0 mm | - | - | - |
| 1788006294 | 22.78° C | 77% | 1068.9 hPa | 0 mm | - | - | - |
| 1788005994 | 22.22° C | 77% | 1043.8 hPa | 0 mm | - | - | - |
| 1788005933 | 22.22° C | 78% | 1050.1 hPa | 0 mm | - | - | - |
| 1788005694 | 22.22° C | 79% | 1040.7 hPa | 0 mm | - | - | - |
| 1788005394 | 22.22° C | 80% | 1031.1 hPa | 0 mm | - | - | - |
| 1788005094 | 21.67° C | 83% | 1053.2 hPa | 0 mm | - | - | - |
| 1788004794 | 21.11° C | 83% | 1046.9 hPa | 0 mm | - | - | - |
* Rain latest hour (hover to see other rain measurements)
** Current wind speed in m/s (hover to see current wind gust speed)